Location: Hale Hill Observatory
(39.3806°N, 86.8431°W)
Time: 04:26:04
(UTC-05:00)

ISS - Visible Passes

Search period start: 01 December 2020 00:00
Search period end: 11 December 2020 00:00
Orbit: 418 x 420 km, 51.6° (Epoch: 01 December)

Date Brightness Start Highest point End Pass type
(mag) Time Alt. Az. Time Alt. Az. Time Alt. Az.
01 Dec -1.0 19:17:25 10° NNW 19:17:45 11° NNW 19:17:45 11° NNW visible
02 Dec -1.5 18:30:06 10° NNW 18:31:40 13° NNE 18:32:11 12° NNE visible
03 Dec -1.4 19:18:35 10° NNW 19:19:38 16° NNW 19:19:38 16° NNW visible
04 Dec -2.2 18:31:12 10° NNW 18:33:44 19° NNE 18:34:14 19° NE visible
05 Dec -2.4 19:19:53 10° NW 19:21:57 33° NW 19:21:57 33° NW visible
06 Dec -3.2 18:32:22 10° NW 18:35:34 39° NNE 18:36:52 26° E visible
06 Dec -0.3 20:09:30 10° WNW 20:09:52 12° W 20:09:52 12° W visible
07 Dec -2.6 19:21:32 10° WNW 19:24:42 39° SW 19:25:06 37° SSW visible
08 Dec -3.6 18:33:46 10° NW 18:37:07 73° SW 18:40:28 10° SE visible
09 Dec -0.6 19:24:14 10° W 19:25:53 13° SW 19:27:32 10° SSW visible
10 Dec -1.1 18:35:42 10° WNW 18:38:24 23° SW 18:41:06 10° S visible
